Location: B�hl
(48.6968°N, 8.1352°E)
Time: 03:59:18
(UTC+00:00)

Cosmos 2237 Rocket - Pass Details

Date: 08 March 2021
Orbit: 835 x 849 km, 71.0° (Epoch: 17 April)

Event Time Altitude Azimuth Distance (km) Brightness Sun altitude
Rises 20:53:45 0° 236° (SW) 3,405 5.6 -33.7°
Reaches altitude 10° 20:56:25 10° 246° (WSW) 2,474 4.9 -34.1°
Maximum altitude 21:01:34 34° 311° (NW) 1,363 3.7 -34.7°
Drops below altitude 10° 21:06:45 10° 16° (NNE) 2,486 4.9 -35.4°
Sets 21:09:26 0° 25° (NNE) 3,424 5.6 -35.7°
